Location: Ottawa
(45.4167°N, 75.7000°W)
Time: 04:41:19
(UTC-05:00)

Envisat - Pass Details

Date: 09 October 2017
Orbit: 764 x 766 km, 98.2° (Epoch: 10 December)

Event Time Altitude Azimuth Distance (km) Brightness Sun altitude
Exits shadow 20:04:23 31° 106° (ESE) 1,311 3.6 -17.8°
Maximum altitude 20:05:54 39° 68° (ENE) 1,141 3.5 -18.0°
Drops below altitude 10° 20:10:36 10° 1° (N) 2,316 5.6 -18.8°
Sets 20:13:02 0° 354° (N) 3,247 6.5 -19.3°
